Weather History for Martinsville, VA

Change the Weather History Date:

Friday, October 12, 2012

  Actual Average (KGSO) Record (KGSO)
Temperature  
Mean Temperature 55 °F 61 °F  
Max Temperature 73 °F 71 °F 90 °F (1904)
Min Temperature 37 °F 50 °F 26 °F (1906)
Degree Days  
Heating Degree Days 10 6  
Month to date heating degree days 51  
Since 1 July heating degree days 82  
Cooling Degree Days 0 1  
Month to date cooling degree days 21  
Year to date cooling degree days 1468  
Growing Degree Days 5 (Base 50)    
Moisture  
Dew Point 42 °F    
Average Humidity 72    
Maximum Humidity 100    
Minimum Humidity 27    
Precipitation  
Precipitation 0.00 in 0.10 in 2.06 in (1990)
Month to date precipitation 1.21  
Year to date precipitation 34.19  
Sea Level Pressure  
Sea Level Pressure 30.25 in    
Wind  
Wind Speed 1 mph (NW)    
Max Wind Speed 14 mph    
Max Gust Speed 17 mph    
Visibility 10 miles    
Events      
T = Trace of Precipitation, MM = Missing Value Source: NWS Daily Summary

Daily Weather History Graph

Daily Weather History Graph

Search for Another Location

Airport:

Trip Planner

Search our weather history database for the weather conditions in past years. The results will help you decide how hot, cold, wet, or windy it might be!

Date:

Astronomy

Oct. 12, 2012 Rise Set
Actual Time 7:25 AM EDT 6:47 PM EDT
Civil Twilight 6:59 AM EDT 7:13 PM EDT
Nautical Twilight 6:29 AM EDT 7:42 PM EDT
Astronomical Twilight 5:59 AM EDT 8:12 PM EDT
Moon 4:10 AM EDT (10/12) 4:52 PM EDT (10/12)
Length of Visible Light 12h 13m
Length of Day
11h 21m
Waning Crescent, 11% of the Moon is Illuminated
Oct 12
Waning Crescent
Oct 15
New
Oct 21
First Quarter
Oct 29
Full
Nov 6
Last Quarter

Hourly Weather History & Observations

Time (EDT) Temp. Dew Point Humidity Pressure Visibility Wind Dir Wind Speed Gust Speed Precip Events Conditions
12:15 AM 42.8 °F 42.8 °F 100% 30.24 in 10.0 mi Calm Calm - N/A   Clear
12:35 AM 42.8 °F 42.8 °F 100% 30.23 in 10.0 mi Calm Calm - N/A   Clear
12:55 AM 42.8 °F 42.8 °F 100% 30.23 in 10.0 mi Calm Calm - N/A   Clear
1:15 AM 42.8 °F 42.8 °F 100% 30.23 in 7.0 mi Calm Calm - N/A   Clear
1:35 AM 42.8 °F 42.8 °F 100% 30.23 in 10.0 mi Calm Calm - N/A   Clear
1:55 AM 42.8 °F 42.8 °F 100% 30.22 in 10.0 mi Calm Calm - N/A   Clear
2:15 AM 42.8 °F 42.8 °F 100% 30.22 in 10.0 mi Calm Calm - N/A   Clear
2:35 AM 41.0 °F 41.0 °F 100% 30.22 in 10.0 mi Calm Calm - N/A   Clear
2:55 AM 41.0 °F 41.0 °F 100% 30.22 in 10.0 mi Calm Calm - N/A   Clear
3:15 AM 41.0 °F 41.0 °F 100% 30.21 in 10.0 mi Calm Calm - N/A   Clear
3:35 AM 39.2 °F 39.2 °F 100% 30.21 in 10.0 mi Calm Calm - N/A   Clear
3:55 AM 39.2 °F 39.2 °F 100% 30.21 in 10.0 mi Calm Calm - N/A   Clear
4:15 AM 39.2 °F 39.2 °F 100% 30.21 in 10.0 mi Calm Calm - N/A   Clear
4:35 AM 39.2 °F 39.2 °F 100% 30.20 in 7.0 mi Calm Calm - N/A   Clear
4:55 AM 39.2 °F 39.2 °F 100% 30.20 in 7.0 mi Calm Calm - N/A   Clear
5:15 AM 39.2 °F 39.2 °F 100% 30.20 in 10.0 mi Calm Calm - N/A   Clear
5:35 AM 39.2 °F 39.2 °F 100% 30.21 in 10.0 mi Calm Calm - N/A   Clear
5:55 AM 39.2 °F 39.2 °F 100% 30.22 in 10.0 mi Calm Calm - N/A   Clear
6:15 AM 39.2 °F 39.2 °F 100% 30.22 in 10.0 mi Calm Calm - N/A   Clear
6:35 AM 39.2 °F 39.2 °F 100% 30.22 in 7.0 mi Calm Calm - N/A   Clear
6:55 AM 39.2 °F 39.2 °F 100% 30.22 in 10.0 mi Calm Calm - N/A   Clear
7:15 AM 37.4 °F 37.4 °F 100% 30.22 in 7.0 mi Calm Calm - N/A   Clear
7:35 AM 39.2 °F 39.2 °F 100% 30.22 in 10.0 mi Calm Calm - N/A   Clear
7:55 AM 39.2 °F 39.2 °F 100% 30.23 in 7.0 mi Calm Calm - N/A   Clear
8:15 AM 41.0 °F 41.0 °F 100% 30.24 in 10.0 mi Calm Calm - N/A   Clear
8:35 AM 44.6 °F 44.6 °F 100% 30.25 in 10.0 mi Calm Calm - N/A   Clear
8:55 AM 46.4 °F 46.4 °F 100% 30.26 in 10.0 mi Calm Calm - N/A   Clear
9:15 AM 50.0 °F 46.4 °F 87% 30.26 in 10.0 mi Calm Calm - N/A   Clear
9:35 AM 53.6 °F 50.0 °F 88% 30.26 in 10.0 mi Calm Calm - N/A   Clear
9:55 AM 59.0 °F 44.6 °F 59% 30.25 in 10.0 mi Calm Calm - N/A   Clear
10:15 AM 62.6 °F 46.4 °F 55% 30.26 in 10.0 mi Calm Calm - N/A   Clear
10:35 AM 64.4 °F 44.6 °F 49% 30.26 in 10.0 mi Calm Calm - N/A   Clear
10:55 AM 64.4 °F 46.4 °F 52% 30.26 in 10.0 mi Calm Calm - N/A   Clear
11:15 AM 64.4 °F 44.6 °F 49% 30.25 in 10.0 mi Calm Calm - N/A   Clear
11:35 AM 66.2 °F 44.6 °F 46% 30.25 in 10.0 mi Calm Calm - N/A   Clear
12:15 PM 69.8 °F 42.8 °F 38% 30.24 in 10.0 mi Calm Calm - N/A   Clear
12:35 PM 69.8 °F 41.0 °F 35% 30.24 in 10.0 mi West 3.5 mph - N/A   Clear
12:55 PM 69.8 °F 41.0 °F 35% 30.24 in 10.0 mi North 4.6 mph - N/A   Clear
1:15 PM 71.6 °F 39.2 °F 31% 30.23 in 10.0 mi NNW 6.9 mph - N/A   Clear
1:35 PM 71.6 °F 39.2 °F 31% 30.22 in 10.0 mi North 8.1 mph - N/A   Clear
1:55 PM 71.6 °F 39.2 °F 31% 30.22 in 10.0 mi NW 8.1 mph - N/A   Clear
2:35 PM 71.6 °F 37.4 °F 29% 30.21 in 10.0 mi NNW 6.9 mph - N/A   Clear
2:55 PM 73.4 °F 39.2 °F 29% 30.21 in 10.0 mi NW 10.4 mph 17.3 mph N/A   Clear
3:15 PM 73.4 °F 39.2 °F 29% 30.21 in 10.0 mi NW 11.5 mph - N/A   Clear
3:35 PM 73.4 °F 39.2 °F 29% 30.21 in 10.0 mi NNW 10.4 mph 17.3 mph N/A   Clear
3:55 PM 73.4 °F 37.4 °F 27% 30.22 in 10.0 mi NW 11.5 mph - N/A   Clear
4:15 PM 73.4 °F 39.2 °F 29% 30.21 in 10.0 mi NW 13.8 mph - N/A   Clear
4:35 PM 73.4 °F 37.4 °F 27% 30.22 in 10.0 mi NW 11.5 mph 17.3 mph N/A   Clear
4:55 PM 73.4 °F 39.2 °F 29% 30.22 in 10.0 mi NW 10.4 mph - N/A   Clear
5:15 PM 71.6 °F 37.4 °F 29% 30.22 in 10.0 mi NW 8.1 mph - N/A   Clear
5:35 PM 71.6 °F 39.2 °F 31% 30.23 in 10.0 mi NNW 6.9 mph - N/A   Clear
5:55 PM 69.8 °F 41.0 °F 35% 30.24 in 10.0 mi NW 5.8 mph - N/A   Clear
6:15 PM 66.2 °F 44.6 °F 46% 30.25 in 10.0 mi Calm Calm - N/A   Clear
6:55 PM 60.8 °F 46.4 °F 59% 30.26 in 10.0 mi WNW 3.5 mph - N/A   Clear
7:15 PM 57.2 °F 46.4 °F 67% 30.27 in 10.0 mi WNW 4.6 mph - N/A   Clear
7:35 PM 57.2 °F 44.6 °F 63% 30.28 in 10.0 mi WNW 3.5 mph - N/A   Clear
7:55 PM 57.2 °F 44.6 °F 63% 30.29 in 10.0 mi Calm Calm - N/A   Clear
8:15 PM 53.6 °F 46.4 °F 77% 30.29 in 10.0 mi Calm Calm - N/A   Clear
8:35 PM 51.8 °F 46.4 °F 82% 30.30 in 10.0 mi Calm Calm - N/A   Clear
8:55 PM 51.8 °F 46.4 °F 82% 30.31 in 10.0 mi Calm Calm - N/A   Clear
9:15 PM 51.8 °F 46.4 °F 82% 30.32 in 10.0 mi Calm Calm - N/A   Clear
9:35 PM 48.2 °F 46.4 °F 93% 30.32 in 10.0 mi Calm Calm - N/A   Clear
10:15 PM 48.2 °F 46.4 °F 93% 30.34 in 10.0 mi Calm Calm - N/A   Clear
10:35 PM 48.2 °F 48.2 °F 100% 30.35 in 10.0 mi Calm Calm - N/A   Clear
10:55 PM 48.2 °F 44.6 °F 87% 30.36 in 10.0 mi Calm Calm - N/A   Clear
11:15 PM 53.6 °F 44.6 °F 72% 30.38 in 10.0 mi NE 4.6 mph - N/A   Clear
11:55 PM 53.6 °F 44.6 °F 72% 30.41 in 10.0 mi NE 4.6 mph - N/A   Clear